Weather History for Truckee-Tahoe, CA

Change the Weather History Date:

Wednesday, April 18, 2012

  Actual Average Record
Temperature  
Mean Temperature 43 °F -  
Max Temperature 53 °F 51 °F 73 °F (1989)
Min Temperature 33 °F 26 °F 4 °F (1963)
Degree Days  
Heating Degree Days 22    
Moisture  
Dew Point 33 °F    
Average Humidity 67    
Maximum Humidity 93    
Minimum Humidity 44    
Precipitation  
Precipitation 0.00 in - - ()
Sea Level Pressure  
Sea Level Pressure 30.16 in    
Wind  
Wind Speed 7 mph (SW)    
Max Wind Speed 16 mph    
Max Gust Speed 21 mph    
Visibility 10 miles    
Events Rain    
Averages and records for this station are not official NWS values.
T = Trace of Precipitation, MM = Missing Value Source: NWS Daily Summary

Daily Weather History Graph

Daily Weather History Graph

Search for Another Location

Airport:

Trip Planner

Search our weather history database for the weather conditions in past years. The results will help you decide how hot, cold, wet, or windy it might be!

Date:

Astronomy

Apr. 18, 2012 Rise Set
Actual Time 6:18 AM PDT 7:41 PM PDT
Civil Twilight 5:50 AM PDT 8:09 PM PDT
Nautical Twilight 5:16 AM PDT 8:43 PM PDT
Astronomical Twilight 4:41 AM PDT 9:18 PM PDT
Moon 4:45 AM PDT (4/18) 5:37 PM PDT (4/18)
Length of Visible Light 14h 19m
Length of Day
13h 23m
Waning Crescent, 6% of the Moon is Illuminated
Apr 18
Waning Crescent
Apr 21
New
Apr 29
First Quarter
May 5
Full
May 12
Last Quarter

Hourly Weather History & Observations

Time (PDT) Temp. Windchill Dew Point Humidity Pressure Visibility Wind Dir Wind Speed Gust Speed Precip Events Conditions
12:15 AM 41.0 °F 37.1 °F 32.0 °F 70% 30.15 in 10.0 mi SW 5.8 mph - N/A   Clear
12:35 AM 41.0 °F 38.0 °F 32.0 °F 70% 30.15 in 10.0 mi SW 4.6 mph - N/A   Clear
12:55 AM 41.0 °F 35.8 °F 32.0 °F 70% 30.15 in 10.0 mi South 8.1 mph - N/A   Clear
1:15 AM 42.8 °F 39.3 °F 30.2 °F 61% 30.15 in 10.0 mi WSW 5.8 mph - N/A   Partly Cloudy
1:35 AM 41.0 °F 34.7 °F 32.0 °F 70% 30.15 in 6.0 mi SW 10.4 mph - N/A Rain Light Rain
1:55 AM 41.0 °F 39.0 °F 33.8 °F 76% 30.14 in 10.0 mi SW 3.5 mph - N/A   Overcast
2:15 AM 39.2 °F 32.0 °F 33.8 °F 81% 30.14 in 9.0 mi SW 11.5 mph - N/A Rain Light Rain
2:35 AM 39.2 °F 34.2 °F 33.8 °F 81% 30.15 in 9.0 mi SW 6.9 mph - N/A Rain Light Rain
2:55 AM 39.2 °F - 35.6 °F 87% 30.15 in 10.0 mi Calm Calm - N/A   Overcast
3:15 AM 39.2 °F - 35.6 °F 87% 30.15 in 10.0 mi Calm Calm - N/A   Overcast
3:35 AM 39.2 °F 33.0 °F 33.8 °F 81% 30.15 in 10.0 mi ESE 9.2 mph - N/A   Overcast
3:55 AM 39.2 °F 33.6 °F 33.8 °F 81% 30.15 in 10.0 mi SE 8.1 mph - N/A   Overcast
4:15 AM 39.2 °F 33.6 °F 32.0 °F 75% 30.14 in 10.0 mi SSE 8.1 mph - N/A   Overcast
4:35 AM 39.2 °F 33.6 °F 32.0 °F 75% 30.13 in 10.0 mi SSE 8.1 mph - N/A   Overcast
4:55 AM 39.2 °F 33.0 °F 32.0 °F 75% 30.13 in 10.0 mi South 9.2 mph - N/A   Overcast
5:15 AM 39.2 °F 34.2 °F 32.0 °F 75% 30.13 in 10.0 mi SSW 6.9 mph - N/A   Overcast
5:35 AM 39.2 °F 35.0 °F 32.0 °F 75% 30.13 in 10.0 mi SSW 5.8 mph - N/A   Overcast
5:55 AM 37.4 °F 32.8 °F 32.0 °F 81% 30.14 in 10.0 mi SW 5.8 mph - N/A   Mostly Cloudy
6:15 AM 37.4 °F 33.8 °F 30.2 °F 75% 30.15 in 10.0 mi WSW 4.6 mph - N/A   Mostly Cloudy
6:35 AM 33.8 °F 28.6 °F 30.2 °F 87% 30.15 in 10.0 mi SW 5.8 mph - N/A   Scattered Clouds
6:45 AM 33.8 °F 28.6 °F 32.0 °F 93% 30.15 in 10.0 mi WSW 5.8 mph - N/A   Scattered Clouds
7:55 AM 42.8 °F 38.6 °F 32.0 °F 66% 30.16 in 10.0 mi West 6.9 mph - N/A   Mostly Cloudy
8:45 AM 44.6 °F 40.7 °F 30.2 °F 57% 30.15 in 10.0 mi WSW 6.9 mph - N/A   Overcast
9:55 AM 48.2 °F - 28.4 °F 46% 30.18 in 10.0 mi SW 9.2 mph - N/A   Mostly Cloudy
10:55 AM 51.8 °F - 32.0 °F 47% 30.18 in 10.0 mi SW 11.5 mph 16.1 mph N/A   Mostly Cloudy
11:55 AM 51.8 °F - 32.0 °F 47% 30.18 in 10.0 mi SW 11.5 mph 19.6 mph N/A   Mostly Cloudy
12:55 PM 51.8 °F - 33.8 °F 50% 30.18 in 10.0 mi West 10.4 mph 19.6 mph N/A   Overcast
1:50 PM 53.6 °F - 32.0 °F 44% 30.17 in 10.0 mi West 8.1 mph 16.1 mph N/A   Mostly Cloudy
2:55 PM 53.6 °F - 32.0 °F 44% 30.17 in 10.0 mi West 16.1 mph 20.7 mph N/A   Mostly Cloudy
3:55 PM 53.6 °F - 32.0 °F 44% 30.17 in 10.0 mi West 11.5 mph 18.4 mph N/A   Mostly Cloudy
4:45 PM 53.6 °F - 32.0 °F 44% 30.15 in 10.0 mi SW 12.7 mph 17.3 mph N/A   Mostly Cloudy
5:50 PM 53.6 °F - 32.0 °F 44% 30.15 in 10.0 mi WSW 10.4 mph 19.6 mph N/A   Mostly Cloudy
5:55 PM 53.6 °F - 32.0 °F 44% 30.15 in 10.0 mi SW 10.4 mph - N/A   Unknown
6:15 PM 51.8 °F - 32.0 °F 47% 30.15 in 10.0 mi WSW 13.8 mph 17.3 mph N/A   Unknown
6:35 PM 50.0 °F - 32.0 °F 50% 30.16 in 10.0 mi WSW 6.9 mph - N/A   Unknown
6:55 PM 50.0 °F - 32.0 °F 50% 30.16 in 10.0 mi SW 11.5 mph 16.1 mph N/A   Unknown
7:15 PM 48.2 °F - 33.8 °F 58% 30.15 in 10.0 mi WSW 8.1 mph - N/A   Unknown
7:35 PM 48.2 °F - 33.8 °F 58% 30.16 in 10.0 mi WSW 3.5 mph - N/A   Unknown
7:55 PM 46.4 °F 44.3 °F 33.8 °F 62% 30.16 in 10.0 mi WSW 4.6 mph - N/A   Unknown
8:15 PM 46.4 °F - 33.8 °F 62% 30.16 in 10.0 mi Calm Calm - N/A   Unknown
8:35 PM 46.4 °F 45.2 °F 33.8 °F 62% 30.17 in 10.0 mi NNW 3.5 mph - N/A   Unknown
8:55 PM 46.4 °F 44.3 °F 35.6 °F 66% 30.18 in 10.0 mi NW 4.6 mph - N/A   Unknown
9:15 PM 46.4 °F 42.9 °F 35.6 °F 66% 30.19 in 10.0 mi WNW 6.9 mph - N/A   Unknown
9:35 PM 44.6 °F - 35.6 °F 71% 30.19 in 10.0 mi Calm Calm - N/A   Overcast
9:55 PM 44.6 °F - 35.6 °F 71% 30.19 in 10.0 mi Calm Calm - N/A   Overcast
10:15 PM 44.6 °F 40.7 °F 35.6 °F 71% 30.20 in 10.0 mi NW 6.9 mph - N/A   Mostly Cloudy
10:35 PM 42.8 °F - 35.6 °F 76% 30.21 in 10.0 mi Calm Calm - N/A   Mostly Cloudy
10:55 PM 41.0 °F - 35.6 °F 81% 30.21 in 10.0 mi Calm Calm - N/A   Mostly Cloudy
11:15 PM 41.0 °F 37.1 °F 33.8 °F 76% 30.21 in 10.0 mi SW 5.8 mph - N/A   Scattered Clouds
11:35 PM 39.2 °F - 33.8 °F 81% 30.21 in 10.0 mi Calm Calm - N/A   Clear
11:55 PM 39.2 °F 37.0 °F 33.8 °F 81% 30.21 in 10.0 mi SW 3.5 mph - N/A   Partly Cloudy